Time,TemperatureF,DewpointF,PressureIn,WindDirection,WindDirectionDegrees,WindSpeedMPH,WindSpeedGustMPH,Humidity,HourlyPrecipIn,Conditions,Clouds,dailyrainin,SoftwareType,DateUTC
2013-03-07 00:00:00,32.7,28.0,30.26,East,90,7.7,21.2,78,0.00,,,0.00,Rainwise IP-100,2013-03-07 05:00:00,
2013-03-07 00:05:00,32.7,28.0,30.26,ENE,67,9.6,20.1,78,0.00,,,0.00,Rainwise IP-100,2013-03-07 05:05:00,
2013-03-07 00:10:00,32.6,28.0,30.25,ENE,67,17.5,18.4,78,0.00,,,0.00,Rainwise IP-100,2013-03-07 05:10:00,
2013-03-07 00:15:00,32.5,28.0,30.24,NNE,22,6.8,19.1,78,0.00,,,0.00,Rainwise IP-100,2013-03-07 05:15:00,
2013-03-07 00:20:00,32.5,28.0,30.24,NNE,22,4.9,15.9,78,0.00,,,0.00,Rainwise IP-100,2013-03-07 05:20:00,
2013-03-07 00:25:00,32.5,28.0,30.25,ENE,67,10.7,15.4,79,0.00,,,0.00,Rainwise IP-100,2013-03-07 05:25:00,
2013-03-07 00:30:00,32.6,28.0,30.25,NNE,22,14.9,19.8,79,0.00,,,0.00,Rainwise IP-100,2013-03-07 05:30:00,
2013-03-07 00:35:00,32.6,28.0,30.24,ENE,67,9.3,19.8,79,0.00,,,0.00,Rainwise IP-100,2013-03-07 05:35:00,
2013-03-07 00:40:00,32.7,28.0,30.25,ENE,67,10.5,20.1,79,0.00,,,0.00,Rainwise IP-100,2013-03-07 05:40:00,
2013-03-07 00:45:00,32.8,28.0,30.26,ENE,67,5.4,18.0,79,0.00,,,0.00,Rainwise IP-100,2013-03-07 05:45:00,
2013-03-07 00:50:00,32.9,28.0,30.25,ENE,67,18.7,21.0,78,0.00,,,0.00,Rainwise IP-100,2013-03-07 05:50:00,
2013-03-07 00:55:00,33.3,26.0,30.26,ENE,67,12.1,20.5,75,0.00,,,0.00,Rainwise IP-100,2013-03-07 05:55:00,
2013-03-07 01:00:00,33.5,26.0,30.26,ENE,67,7.0,21.5,72,0.00,,,0.00,Rainwise IP-100,2013-03-07 06:00:00,
2013-03-07 01:05:00,33.6,26.0,30.26,ENE,67,9.3,21.2,72,0.00,,,0.00,Rainwise IP-100,2013-03-07 06:05:00,
2013-03-07 01:10:00,33.6,26.0,30.26,NE,45,16.6,22.2,72,0.00,,,0.00,Rainwise IP-100,2013-03-07 06:10:00,
2013-03-07 01:15:00,33.6,26.0,30.26,ESE,112,17.3,25.9,71,0.00,,,0.00,Rainwise IP-100,2013-03-07 06:15:00,
2013-03-07 01:20:00,33.6,26.0,30.26,ESE,112,18.4,24.2,71,0.00,,,0.00,Rainwise IP-100,2013-03-07 06:20:00,
2013-03-07 01:25:00,33.6,26.0,30.26,ENE,67,16.6,21.9,71,0.00,,,0.00,Rainwise IP-100,2013-03-07 06:25:00,
2013-03-07 01:30:00,33.6,26.0,30.25,ENE,67,13.8,18.9,72,0.00,,,0.00,Rainwise IP-100,2013-03-07 06:30:00,
2013-03-07 01:35:00,33.5,26.0,30.25,NE,45,15.2,18.9,72,0.00,,,0.00,Rainwise IP-100,2013-03-07 06:35:00,
2013-03-07 01:40:00,33.5,28.0,30.24,East,90,15.9,21.9,73,0.00,,,0.00,Rainwise IP-100,2013-03-07 06:40:00,
2013-03-07 01:45:00,33.5,26.0,30.23,ENE,67,13.5,28.0,72,0.00,,,0.00,Rainwise IP-100,2013-03-07 06:45:00,
2013-03-07 01:50:00,33.6,26.0,30.23,ENE,67,24.7,24.7,72,0.00,,,0.00,Rainwise IP-100,2013-03-07 06:50:00,
2013-03-07 01:55:00,33.6,26.0,30.23,ENE,67,13.1,28.7,72,0.00,,,0.00,Rainwise IP-100,2013-03-07 06:55:00,
2013-03-07 02:00:00,33.6,26.0,30.22,ENE,67,17.5,23.6,72,0.00,,,0.00,Rainwise IP-100,2013-03-07 07:00:00,
2013-03-07 02:05:00,33.5,28.0,30.22,NE,45,18.9,24.9,73,0.00,,,0.00,Rainwise IP-100,2013-03-07 07:05:00,
2013-03-07 02:10:00,33.5,28.0,30.23,ENE,67,8.9,27.3,73,0.00,,,0.00,Rainwise IP-100,2013-03-07 07:10:00,
2013-03-07 02:15:00,33.4,26.0,30.22,NE,45,8.2,24.9,73,0.00,,,0.00,Rainwise IP-100,2013-03-07 07:15:00,
2013-03-07 02:20:00,33.4,26.0,30.21,ENE,67,7.7,24.0,73,0.00,,,0.00,Rainwise IP-100,2013-03-07 07:20:00,
2013-03-07 02:25:00,33.3,26.0,30.21,ENE,67,12.8,22.6,73,0.00,,,0.00,Rainwise IP-100,2013-03-07 07:25:00,
2013-03-07 02:30:00,33.2,26.0,30.21,NE,45,13.8,21.2,73,0.00,,,0.00,Rainwise IP-100,2013-03-07 07:30:00,
2013-03-07 02:35:00,33.2,26.0,30.21,East,90,8.6,24.9,73,0.00,,,0.00,Rainwise IP-100,2013-03-07 07:35:00,
2013-03-07 02:40:00,33.2,26.0,30.20,ENE,67,15.4,30.3,73,0.00,,,0.00,Rainwise IP-100,2013-03-07 07:40:00,
2013-03-07 02:43:00,33.2,26.0,30.21,NNE,22,14.2,30.3,73,0.00,,,0.00,Rainwise IP-100,2013-03-07 07:43:00,
2013-03-07 02:45:00,33.2,26.0,30.21,ENE,67,13.3,22.9,73,0.00,,,0.00,Rainwise IP-100,2013-03-07 07:45:00,
2013-03-07 02:50:00,33.2,26.0,30.21,ENE,67,16.3,22.4,73,0.00,,,0.00,Rainwise IP-100,2013-03-07 07:50:00,
2013-03-07 02:55:00,33.2,26.0,30.22,NE,45,11.7,25.6,74,0.00,,,0.00,Rainwise IP-100,2013-03-07 07:55:00,
2013-03-07 03:00:00,33.2,26.0,30.21,ENE,67,13.3,25.4,73,0.00,,,0.00,Rainwise IP-100,2013-03-07 08:00:00,
2013-03-07 03:05:00,33.2,26.0,30.21,ENE,67,10.3,21.9,73,0.00,,,0.00,Rainwise IP-100,2013-03-07 08:05:00,
2013-03-07 03:10:00,33.1,26.0,30.20,East,90,2.6,23.3,74,0.00,,,0.00,Rainwise IP-100,2013-03-07 08:10:00,
2013-03-07 03:15:00,33.1,26.0,30.20,ENE,67,11.2,21.9,74,0.00,,,0.00,Rainwise IP-100,2013-03-07 08:15:00,
2013-03-07 03:20:00,33.1,26.0,30.19,NNE,22,17.3,22.9,74,0.00,,,0.00,Rainwise IP-100,2013-03-07 08:20:00,
2013-03-07 03:25:00,33.1,26.0,30.20,ENE,67,5.1,25.6,73,0.00,,,0.00,Rainwise IP-100,2013-03-07 08:25:00,
2013-03-07 03:30:00,33.1,26.0,30.20,NE,45,9.3,21.0,73,0.00,,,0.00,Rainwise IP-100,2013-03-07 08:30:00,
2013-03-07 03:35:00,33.1,26.0,30.20,NNW,337,0.0,22.6,74,0.00,,,0.00,Rainwise IP-100,2013-03-07 08:35:00,
2013-03-07 03:40:00,33.1,26.0,30.20,NNW,337,4.7,22.6,74,0.00,,,0.00,Rainwise IP-100,2013-03-07 08:40:00,
2013-03-07 03:45:00,33.1,26.0,30.19,NNE,22,7.9,17.0,74,0.00,,,0.00,Rainwise IP-100,2013-03-07 08:45:00,
2013-03-07 03:50:00,33.1,26.0,30.20,ENE,67,4.4,21.0,74,0.00,,,0.00,Rainwise IP-100,2013-03-07 08:50:00,
2013-03-07 03:55:00,33.2,26.0,30.20,NE,45,13.5,18.2,74,0.00,,,0.00,Rainwise IP-100,2013-03-07 08:55:00,
2013-03-07 04:00:00,33.1,26.0,30.20,ENE,67,14.5,20.5,75,0.00,,,0.00,Rainwise IP-100,2013-03-07 09:00:00,
2013-03-07 04:05:00,33.1,26.0,30.20,NE,45,11.9,20.3,75,0.00,,,0.00,Rainwise IP-100,2013-03-07 09:05:00,
2013-03-07 04:10:00,33.2,26.0,30.20,ENE,67,6.1,22.2,75,0.00,,,0.00,Rainwise IP-100,2013-03-07 09:10:00,
2013-03-07 04:15:00,33.2,26.0,30.19,ENE,67,5.6,24.9,75,0.00,,,0.00,Rainwise IP-100,2013-03-07 09:15:00,
2013-03-07 04:20:00,33.2,26.0,30.20,NE,45,15.4,17.7,75,0.00,,,0.00,Rainwise IP-100,2013-03-07 09:20:00,
2013-03-07 04:25:00,33.3,26.0,30.20,NNE,22,3.7,21.7,75,0.00,,,0.00,Rainwise IP-100,2013-03-07 09:25:00,
2013-03-07 04:30:00,33.3,26.0,30.20,North,360,8.4,19.1,76,0.00,,,0.00,Rainwise IP-100,2013-03-07 09:30:00,
2013-03-07 04:35:00,33.3,26.0,30.19,ESE,112,15.4,19.1,76,0.00,,,0.00,Rainwise IP-100,2013-03-07 09:35:00,
2013-03-07 04:40:00,33.3,26.0,30.20,ENE,67,12.6,22.6,76,0.00,,,0.00,Rainwise IP-100,2013-03-07 09:40:00,
2013-03-07 04:45:00,33.4,26.0,30.20,ENE,67,9.1,21.0,76,0.00,,,0.00,Rainwise IP-100,2013-03-07 09:45:00,
2013-03-07 04:50:00,33.4,26.0,30.20,ENE,67,15.9,22.9,76,0.00,,,0.00,Rainwise IP-100,2013-03-07 09:50:00,
2013-03-07 04:55:00,33.4,26.0,30.20,NE,45,14.5,21.5,76,0.00,,,0.00,Rainwise IP-100,2013-03-07 09:55:00,
2013-03-07 05:00:00,33.4,26.0,30.20,ESE,112,9.8,19.8,76,0.00,,,0.00,Rainwise IP-100,2013-03-07 10:00:00,
2013-03-07 05:05:00,33.4,26.0,30.20,NNE,22,16.6,25.9,76,0.00,,,0.00,Rainwise IP-100,2013-03-07 10:05:00,
2013-03-07 05:10:00,33.4,26.0,30.20,ENE,67,12.4,20.8,75,0.00,,,0.00,Rainwise IP-100,2013-03-07 10:10:00,
2013-03-07 05:15:00,33.4,26.0,30.20,NE,45,18.9,22.4,75,0.00,,,0.00,Rainwise IP-100,2013-03-07 10:15:00,
2013-03-07 05:20:00,33.4,26.0,30.21,ENE,67,8.4,22.4,75,0.00,,,0.00,Rainwise IP-100,2013-03-07 10:20:00,
2013-03-07 05:25:00,33.4,26.0,30.20,ENE,67,18.9,23.6,76,0.00,,,0.00,Rainwise IP-100,2013-03-07 10:25:00,
2013-03-07 05:30:00,33.5,28.0,30.20,ENE,67,17.0,24.9,76,0.00,,,0.00,Rainwise IP-100,2013-03-07 10:30:00,
2013-03-07 05:35:00,33.5,28.0,30.20,ENE,67,18.7,19.4,75,0.00,,,0.00,Rainwise IP-100,2013-03-07 10:35:00,
2013-03-07 05:40:00,33.5,28.0,30.22,ENE,67,10.7,25.2,75,0.00,,,0.00,Rainwise IP-100,2013-03-07 10:40:00,
2013-03-07 05:45:00,33.5,28.0,30.22,ESE,112,3.0,21.9,75,0.00,,,0.00,Rainwise IP-100,2013-03-07 10:45:00,
2013-03-07 05:50:00,33.5,28.0,30.21,NE,45,9.8,17.7,75,0.00,,,0.00,Rainwise IP-100,2013-03-07 10:50:00,
2013-03-07 05:55:00,33.4,26.0,30.23,ENE,67,11.0,17.3,76,0.00,,,0.00,Rainwise IP-100,2013-03-07 10:55:00,
2013-03-07 06:00:00,33.4,26.0,30.23,ENE,67,9.3,21.7,76,0.00,,,0.00,Rainwise IP-100,2013-03-07 11:00:00,
2013-03-07 06:05:00,33.4,26.0,30.23,ESE,112,10.5,20.1,76,0.00,,,0.00,Rainwise IP-100,2013-03-07 11:05:00,
2013-03-07 06:10:00,33.5,28.0,30.23,ENE,67,11.2,16.3,76,0.00,,,0.00,Rainwise IP-100,2013-03-07 11:10:00,
2013-03-07 06:15:00,33.5,28.0,30.23,ENE,67,14.2,18.9,77,0.00,,,0.00,Rainwise IP-100,2013-03-07 11:15:00,
2013-03-07 06:20:00,33.4,26.0,30.23,ENE,67,15.6,21.9,76,0.00,,,0.00,Rainwise IP-100,2013-03-07 11:20:00,
2013-03-07 06:26:00,33.4,26.0,30.23,ENE,67,11.0,20.8,76,0.00,,,0.00,Rainwise IP-100,2013-03-07 11:26:00,
2013-03-07 06:31:00,33.4,28.0,30.23,ENE,67,7.5,19.4,77,0.00,,,0.00,Rainwise IP-100,2013-03-07 11:31:00,
2013-03-07 06:36:00,33.4,26.0,30.22,ENE,67,21.2,22.6,76,0.00,,,0.00,Rainwise IP-100,2013-03-07 11:36:00,
2013-03-07 06:41:00,33.5,28.0,30.22,NE,45,18.4,22.9,76,0.00,,,0.00,Rainwise IP-100,2013-03-07 11:41:00,
2013-03-07 06:46:00,33.5,28.0,30.21,NE,45,15.6,25.4,76,0.00,,,0.00,Rainwise IP-100,2013-03-07 11:46:00,
2013-03-07 06:51:00,33.4,26.0,30.21,ENE,67,15.6,23.8,76,0.00,,,0.00,Rainwise IP-100,2013-03-07 11:51:00,
2013-03-07 06:56:00,33.4,26.0,30.20,ENE,67,7.2,25.4,76,0.00,,,0.00,Rainwise IP-100,2013-03-07 11:56:00,
2013-03-07 07:01:00,33.5,28.0,30.21,NNE,22,11.9,27.5,76,0.00,,,0.00,Rainwise IP-100,2013-03-07 12:01:00,
2013-03-07 07:06:00,33.4,26.0,30.21,East,90,11.7,23.3,76,0.00,,,0.00,Rainwise IP-100,2013-03-07 12:06:00,
2013-03-07 07:11:00,33.4,26.0,30.21,ENE,67,17.3,28.7,76,0.00,,,0.00,Rainwise IP-100,2013-03-07 12:11:00,
2013-03-07 07:16:00,33.5,28.0,30.22,ESE,112,11.0,31.2,76,0.00,,,0.00,Rainwise IP-100,2013-03-07 12:16:00,
2013-03-07 07:21:00,33.6,28.0,30.20,ENE,67,16.6,28.7,76,0.00,,,0.00,Rainwise IP-100,2013-03-07 12:21:00,
2013-03-07 07:26:00,33.6,28.0,30.20,ENE,67,15.9,31.2,76,0.00,,,0.00,Rainwise IP-100,2013-03-07 12:26:00,
2013-03-07 07:31:00,33.7,28.0,30.22,ENE,67,21.9,24.2,76,0.00,,,0.00,Rainwise IP-100,2013-03-07 12:31:00,
2013-03-07 07:36:00,33.8,28.0,30.22,NNE,22,16.1,31.7,75,0.00,,,0.00,Rainwise IP-100,2013-03-07 12:36:00,
2013-03-07 07:41:00,33.7,28.0,30.22,NE,45,4.4,19.6,75,0.00,,,0.00,Rainwise IP-100,2013-03-07 12:41:00,
2013-03-07 07:46:00,33.5,28.0,30.21,ENE,67,12.6,24.2,76,0.00,,,0.00,Rainwise IP-100,2013-03-07 12:46:00,
2013-03-07 07:51:00,33.4,26.0,30.23,NNE,22,8.2,23.6,76,0.00,,,0.00,Rainwise IP-100,2013-03-07 12:51:00,
2013-03-07 07:56:00,33.3,26.0,30.22,ENE,67,9.3,19.6,76,0.00,,,0.00,Rainwise IP-100,2013-03-07 12:56:00,
2013-03-07 08:01:00,33.3,26.0,30.22,ENE,67,15.2,20.1,76,0.00,,,0.00,Rainwise IP-100,2013-03-07 13:01:00,
2013-03-07 08:06:00,33.3,26.0,30.23,NNE,22,12.4,21.5,75,0.00,,,0.00,Rainwise IP-100,2013-03-07 13:06:00,
2013-03-07 08:11:00,33.4,26.0,30.23,NNE,22,5.1,19.4,75,0.00,,,0.00,Rainwise IP-100,2013-03-07 13:11:00,
2013-03-07 08:16:00,33.5,28.0,30.23,NE,45,12.1,21.0,76,0.00,,,0.00,Rainwise IP-100,2013-03-07 13:16:00,
2013-03-07 08:21:00,33.6,28.0,30.22,ENE,67,18.2,26.1,75,0.00,,,0.00,Rainwise IP-100,2013-03-07 13:21:00,
2013-03-07 08:26:00,33.7,28.0,30.23,ENE,67,13.5,24.5,75,0.00,,,0.00,Rainwise IP-100,2013-03-07 13:26:00,
2013-03-07 08:31:00,33.7,28.0,30.22,ENE,67,17.0,23.3,75,0.00,,,0.00,Rainwise IP-100,2013-03-07 13:31:00,
2013-03-07 08:36:00,33.6,28.0,30.22,NNE,22,13.8,19.6,76,0.00,,,0.00,Rainwise IP-100,2013-03-07 13:36:00,
2013-03-07 08:41:00,33.7,28.0,30.23,NNE,22,2.8,24.9,76,0.00,,,0.00,Rainwise IP-100,2013-03-07 13:41:00,
2013-03-07 08:46:00,33.6,28.0,30.22,NE,45,16.8,22.4,76,0.00,,,0.00,Rainwise IP-100,2013-03-07 13:46:00,
2013-03-07 08:51:00,33.6,28.0,30.22,ENE,67,11.9,23.6,76,0.00,,,0.00,Rainwise IP-100,2013-03-07 13:51:00,
2013-03-07 08:56:00,33.6,28.0,30.22,ESE,112,8.4,26.1,76,0.00,,,0.00,Rainwise IP-100,2013-03-07 13:56:00,
2013-03-07 09:01:00,33.6,28.0,30.22,ENE,67,25.6,30.8,76,0.00,,,0.00,Rainwise IP-100,2013-03-07 14:01:00,
2013-03-07 09:06:00,33.6,28.0,30.22,ENE,67,19.4,32.2,76,0.00,,,0.00,Rainwise IP-100,2013-03-07 14:06:00,
2013-03-07 09:11:00,33.5,28.0,30.22,ENE,67,34.3,34.3,76,0.00,,,0.00,Rainwise IP-100,2013-03-07 14:11:00,
2013-03-07 09:16:00,33.4,26.0,30.21,ENE,67,26.6,34.7,76,0.06,,,0.01,Rainwise IP-100,2013-03-07 14:16:00,
2013-03-07 09:21:00,33.3,26.0,30.22,ENE,67,16.3,37.3,76,0.06,,,0.01,Rainwise IP-100,2013-03-07 14:21:00,
2013-03-07 09:26:00,33.2,26.0,30.21,ENE,67,16.3,32.4,76,0.00,,,0.01,Rainwise IP-100,2013-03-07 14:26:00,
2013-03-07 09:31:00,33.1,28.0,30.22,ENE,67,12.4,30.8,77,0.00,,,0.01,Rainwise IP-100,2013-03-07 14:31:00,
2013-03-07 09:36:00,33.0,28.0,30.22,ENE,67,15.9,24.2,77,0.00,,,0.01,Rainwise IP-100,2013-03-07 14:36:00,
2013-03-07 09:41:00,33.0,26.0,30.22,NE,45,11.9,27.7,76,0.00,,,0.01,Rainwise IP-100,2013-03-07 14:41:00,
2013-03-07 09:46:00,32.9,26.0,30.21,ENE,67,16.6,31.7,76,0.00,,,0.01,Rainwise IP-100,2013-03-07 14:46:00,
2013-03-07 09:51:00,32.9,26.0,30.21,ENE,67,16.6,31.5,76,0.00,,,0.01,Rainwise IP-100,2013-03-07 14:51:00,
2013-03-07 09:56:00,32.9,26.0,30.21,ENE,67,16.3,23.1,76,0.00,,,0.01,Rainwise IP-100,2013-03-07 14:56:00,
2013-03-07 10:01:00,32.9,26.0,30.22,NE,45,4.2,22.9,76,0.00,,,0.01,Rainwise IP-100,2013-03-07 15:01:00,
2013-03-07 10:06:00,32.9,26.0,30.22,ENE,67,12.1,25.4,75,0.00,,,0.01,Rainwise IP-100,2013-03-07 15:06:00,
2013-03-07 10:11:00,32.9,26.0,30.22,NE,45,21.0,22.4,75,0.00,,,0.01,Rainwise IP-100,2013-03-07 15:11:00,
2013-03-07 10:16:00,32.9,26.0,30.22,NNE,22,10.7,23.3,74,0.00,,,0.01,Rainwise IP-100,2013-03-07 15:16:00,
2013-03-07 10:21:00,32.8,26.0,30.22,ENE,67,4.2,24.7,74,0.00,,,0.01,Rainwise IP-100,2013-03-07 15:21:00,
2013-03-07 10:26:00,32.8,26.0,30.22,NE,45,7.5,28.4,74,0.00,,,0.01,Rainwise IP-100,2013-03-07 15:26:00,
2013-03-07 10:31:00,32.9,26.0,30.22,NE,45,12.1,24.9,74,0.00,,,0.01,Rainwise IP-100,2013-03-07 15:31:00,
2013-03-07 10:36:00,32.9,26.0,30.21,East,90,9.1,22.2,74,0.00,,,0.01,Rainwise IP-100,2013-03-07 15:36:00,
2013-03-07 10:41:00,32.9,26.0,30.23,ENE,67,14.0,22.9,73,0.00,,,0.01,Rainwise IP-100,2013-03-07 15:41:00,
2013-03-07 10:46:00,33.0,26.0,30.22,ENE,67,19.6,26.8,73,0.00,,,0.01,Rainwise IP-100,2013-03-07 15:46:00,
2013-03-07 10:51:00,32.9,26.0,30.21,ENE,67,21.0,26.6,73,0.00,,,0.01,Rainwise IP-100,2013-03-07 15:51:00,
2013-03-07 10:56:00,33.0,26.0,30.22,ENE,67,18.2,24.7,73,0.00,,,0.01,Rainwise IP-100,2013-03-07 15:56:00,
2013-03-07 11:01:00,33.2,26.0,30.21,East,90,11.4,27.7,73,0.00,,,0.01,Rainwise IP-100,2013-03-07 16:01:00,
2013-03-07 11:06:00,33.3,26.0,30.21,ENE,67,16.6,25.6,73,0.00,,,0.01,Rainwise IP-100,2013-03-07 16:06:00,
2013-03-07 11:11:00,33.3,26.0,30.21,ENE,67,19.1,28.4,72,0.00,,,0.01,Rainwise IP-100,2013-03-07 16:11:00,
2013-03-07 11:16:00,33.3,26.0,30.22,ENE,67,24.0,28.0,72,0.00,,,0.01,Rainwise IP-100,2013-03-07 16:16:00,
2013-03-07 11:21:00,33.3,26.0,30.21,ENE,67,15.9,28.4,72,0.00,,,0.01,Rainwise IP-100,2013-03-07 16:21:00,
2013-03-07 11:26:00,33.3,26.0,30.21,ENE,67,12.6,27.5,72,0.00,,,0.01,Rainwise IP-100,2013-03-07 16:26:00,
2013-03-07 11:31:00,33.4,26.0,30.21,ENE,67,14.9,26.8,73,0.00,,,0.01,Rainwise IP-100,2013-03-07 16:31:00,
2013-03-07 11:36:00,33.5,28.0,30.21,NNE,22,6.1,20.3,73,0.00,,,0.01,Rainwise IP-100,2013-03-07 16:36:00,
2013-03-07 11:41:00,33.6,28.0,30.21,ENE,67,14.9,21.2,73,0.00,,,0.01,Rainwise IP-100,2013-03-07 16:41:00,
2013-03-07 11:46:00,33.6,28.0,30.20,ENE,67,23.3,27.7,73,0.00,,,0.01,Rainwise IP-100,2013-03-07 16:46:00,
2013-03-07 11:51:00,33.6,28.0,30.19,ENE,67,11.7,23.3,73,0.00,,,0.01,Rainwise IP-100,2013-03-07 16:51:00,
2013-03-07 11:56:00,33.8,28.0,30.20,NE,45,8.4,23.8,73,0.00,,,0.01,Rainwise IP-100,2013-03-07 16:56:00,
2013-03-07 12:01:00,33.8,28.0,30.19,ENE,67,17.5,24.0,73,0.00,,,0.01,Rainwise IP-100,2013-03-07 17:01:00,
2013-03-07 12:06:00,33.8,28.0,30.19,NE,45,10.5,21.5,73,0.00,,,0.01,Rainwise IP-100,2013-03-07 17:06:00,
2013-03-07 12:11:00,33.9,28.0,30.18,ENE,67,18.2,21.5,73,0.00,,,0.01,Rainwise IP-100,2013-03-07 17:11:00,
2013-03-07 12:16:00,33.9,28.0,30.19,ENE,67,19.6,24.2,74,0.00,,,0.01,Rainwise IP-100,2013-03-07 17:16:00,
2013-03-07 12:21:00,33.9,28.0,30.18,ENE,67,4.7,21.5,74,0.00,,,0.01,Rainwise IP-100,2013-03-07 17:21:00,
2013-03-07 12:26:00,34.0,28.0,30.18,NNE,22,7.0,23.3,74,0.00,,,0.01,Rainwise IP-100,2013-03-07 17:26:00,
2013-03-07 12:31:00,34.0,28.0,30.19,NNW,337,6.8,24.2,74,0.00,,,0.01,Rainwise IP-100,2013-03-07 17:31:00,
2013-03-07 12:36:00,34.1,28.0,30.18,ENE,67,20.8,24.7,74,0.00,,,0.01,Rainwise IP-100,2013-03-07 17:36:00,
2013-03-07 12:41:00,34.1,28.0,30.18,East,90,7.0,24.7,74,0.00,,,0.01,Rainwise IP-100,2013-03-07 17:41:00,
2013-03-07 12:46:00,34.2,28.0,30.18,East,90,5.6,27.5,74,0.00,,,0.01,Rainwise IP-100,2013-03-07 17:46:00,
2013-03-07 12:51:00,34.3,28.0,30.17,ENE,67,14.5,24.0,74,0.00,,,0.01,Rainwise IP-100,2013-03-07 17:51:00,
2013-03-07 12:56:00,34.3,28.0,30.18,ENE,67,4.9,28.4,73,0.00,,,0.01,Rainwise IP-100,2013-03-07 17:56:00,
2013-03-07 13:01:00,34.3,28.0,30.17,East,90,9.6,27.0,73,0.00,,,0.01,Rainwise IP-100,2013-03-07 18:01:00,
2013-03-07 13:06:00,34.2,28.0,30.18,ENE,67,13.1,27.3,73,0.00,,,0.01,Rainwise IP-100,2013-03-07 18:06:00,
2013-03-07 13:11:00,34.2,28.0,30.18,ENE,67,10.0,31.7,73,0.00,,,0.01,Rainwise IP-100,2013-03-07 18:11:00,
2013-03-07 13:17:00,34.2,28.0,30.18,ENE,67,10.3,24.9,73,0.00,,,0.01,Rainwise IP-100,2013-03-07 18:17:00,
2013-03-07 13:22:00,34.3,28.0,30.18,NNE,22,7.0,28.4,73,0.00,,,0.01,Rainwise IP-100,2013-03-07 18:22:00,
2013-03-07 13:27:00,34.5,28.0,30.18,ENE,67,9.8,19.6,73,0.00,,,0.01,Rainwise IP-100,2013-03-07 18:27:00,
2013-03-07 13:32:00,34.7,26.0,30.19,ESE,112,12.8,20.5,72,0.00,,,0.01,Rainwise IP-100,2013-03-07 18:32:00,
2013-03-07 13:37:00,34.8,26.0,30.18,ENE,67,17.3,30.5,72,0.00,,,0.01,Rainwise IP-100,2013-03-07 18:37:00,
2013-03-07 13:42:00,34.9,26.0,30.18,ENE,67,14.0,31.7,71,0.00,,,0.01,Rainwise IP-100,2013-03-07 18:42:00,
2013-03-07 13:47:00,35.0,26.0,30.18,NNE,22,18.2,24.0,71,0.00,,,0.01,Rainwise IP-100,2013-03-07 18:47:00,
2013-03-07 13:52:00,35.2,26.0,30.18,ENE,67,16.8,32.2,71,0.00,,,0.01,Rainwise IP-100,2013-03-07 18:52:00,
2013-03-07 13:57:00,35.3,26.0,30.18,ENE,67,11.2,22.6,70,0.00,,,0.01,Rainwise IP-100,2013-03-07 18:57:00,
2013-03-07 14:02:00,35.5,28.0,30.17,ENE,67,10.0,21.2,70,0.00,,,0.01,Rainwise IP-100,2013-03-07 19:02:00,
2013-03-07 14:07:00,35.5,28.0,30.17,NNE,22,11.2,21.2,70,0.00,,,0.01,Rainwise IP-100,2013-03-07 19:07:00,
2013-03-07 14:12:00,35.5,28.0,30.17,ENE,67,11.0,17.7,70,0.00,,,0.01,Rainwise IP-100,2013-03-07 19:12:00,
2013-03-07 14:17:00,35.7,26.0,30.16,ENE,67,8.4,20.1,69,0.00,,,0.01,Rainwise IP-100,2013-03-07 19:17:00,
2013-03-07 14:22:00,35.9,26.0,30.17,NE,45,5.1,18.2,69,0.00,,,0.01,Rainwise IP-100,2013-03-07 19:22:00,
2013-03-07 14:27:00,36.2,26.0,30.17,NE,45,8.9,18.2,69,0.00,,,0.01,Rainwise IP-100,2013-03-07 19:27:00,
2013-03-07 14:32:00,36.5,28.0,30.16,North,360,2.6,18.0,68,0.00,,,0.01,Rainwise IP-100,2013-03-07 19:32:00,
2013-03-07 14:37:00,36.4,28.0,30.16,North,360,1.9,14.0,70,0.00,,,0.01,Rainwise IP-100,2013-03-07 19:37:00,
2013-03-07 14:42:00,36.3,28.0,30.16,North,360,5.8,15.9,71,0.00,,,0.01,Rainwise IP-100,2013-03-07 19:42:00,
2013-03-07 14:47:00,36.4,28.0,30.16,NNE,22,5.6,14.7,71,0.00,,,0.01,Rainwise IP-100,2013-03-07 19:47:00,
2013-03-07 14:52:00,36.5,28.0,30.16,NNE,22,7.2,18.0,70,0.00,,,0.01,Rainwise IP-100,2013-03-07 19:52:00,
2013-03-07 14:57:00,36.5,29.0,30.15,NNE,22,7.0,13.8,71,0.00,,,0.01,Rainwise IP-100,2013-03-07 19:57:00,
2013-03-07 15:02:00,36.7,28.0,30.16,NNE,22,8.9,21.2,70,0.00,,,0.01,Rainwise IP-100,2013-03-07 20:02:00,
2013-03-07 15:07:00,36.9,28.0,30.16,ENE,67,4.4,20.3,69,0.00,,,0.01,Rainwise IP-100,2013-03-07 20:07:00,
2013-03-07 15:12:00,37.2,28.0,30.16,NNE,22,4.2,14.5,68,0.00,,,0.01,Rainwise IP-100,2013-03-07 20:12:00,
2013-03-07 15:17:00,37.2,28.0,30.16,NNE,22,11.9,23.8,67,0.00,,,0.01,Rainwise IP-100,2013-03-07 20:17:00,
2013-03-07 15:22:00,37.0,28.0,30.15,NNE,22,10.7,21.9,67,0.00,,,0.01,Rainwise IP-100,2013-03-07 20:22:00,
2013-03-07 15:27:00,36.9,28.0,30.15,ENE,67,5.8,21.0,67,0.00,,,0.01,Rainwise IP-100,2013-03-07 20:27:00,
2013-03-07 15:32:00,36.9,28.0,30.15,NNE,22,7.0,21.9,67,0.00,,,0.01,Rainwise IP-100,2013-03-07 20:32:00,
2013-03-07 15:37:00,36.8,28.0,30.15,NNE,22,13.8,17.3,68,0.00,,,0.01,Rainwise IP-100,2013-03-07 20:37:00,
2013-03-07 15:42:00,36.9,28.0,30.16,ENE,67,7.0,22.2,67,0.00,,,0.01,Rainwise IP-100,2013-03-07 20:42:00,
2013-03-07 15:47:00,37.0,28.0,30.16,ENE,67,15.2,23.8,66,0.00,,,0.01,Rainwise IP-100,2013-03-07 20:47:00,
2013-03-07 15:52:00,36.9,26.0,30.16,ENE,67,16.8,24.0,65,0.00,,,0.01,Rainwise IP-100,2013-03-07 20:52:00,
2013-03-07 15:57:00,36.8,26.0,30.16,ENE,67,9.1,24.0,65,0.00,,,0.01,Rainwise IP-100,2013-03-07 20:57:00,
2013-03-07 16:02:00,36.6,26.0,30.16,NNE,22,11.9,19.6,65,0.00,,,0.01,Rainwise IP-100,2013-03-07 21:02:00,
2013-03-07 16:07:00,36.5,28.0,30.15,ENE,67,13.5,22.2,66,0.00,,,0.01,Rainwise IP-100,2013-03-07 21:07:00,
2013-03-07 16:12:00,36.5,26.0,30.16,NNE,22,4.0,26.1,65,0.00,,,0.01,Rainwise IP-100,2013-03-07 21:12:00,
2013-03-07 16:17:00,36.5,26.0,30.16,NE,45,18.2,19.1,64,0.00,,,0.01,Rainwise IP-100,2013-03-07 21:17:00,
2013-03-07 16:22:00,36.5,26.0,30.16,NNE,22,11.9,23.8,64,0.00,,,0.01,Rainwise IP-100,2013-03-07 21:22:00,
2013-03-07 16:27:00,36.5,26.0,30.16,ENE,67,10.5,20.3,64,0.00,,,0.01,Rainwise IP-100,2013-03-07 21:27:00,
2013-03-07 16:32:00,36.5,26.0,30.16,ENE,67,12.4,19.1,64,0.00,,,0.01,Rainwise IP-100,2013-03-07 21:32:00,
2013-03-07 16:37:00,36.5,26.0,30.17,NNE,22,8.2,19.6,65,0.00,,,0.01,Rainwise IP-100,2013-03-07 21:37:00,
2013-03-07 16:42:00,36.4,26.0,30.16,NE,45,11.9,19.8,66,0.00,,,0.01,Rainwise IP-100,2013-03-07 21:42:00,
2013-03-07 16:47:00,36.3,26.0,30.16,NNE,22,7.2,22.4,67,0.00,,,0.01,Rainwise IP-100,2013-03-07 21:47:00,
2013-03-07 16:52:00,36.2,26.0,30.16,ENE,67,13.1,22.6,68,0.00,,,0.01,Rainwise IP-100,2013-03-07 21:52:00,
2013-03-07 16:57:00,36.0,26.0,30.16,NNE,22,9.3,22.4,68,0.00,,,0.01,Rainwise IP-100,2013-03-07 21:57:00,
2013-03-07 17:02:00,35.8,28.0,30.16,North,360,7.7,21.7,70,0.00,,,0.01,Rainwise IP-100,2013-03-07 22:02:00,
2013-03-07 17:07:00,35.6,28.0,30.17,North,360,10.5,18.7,71,0.00,,,0.01,Rainwise IP-100,2013-03-07 22:07:00,
2013-03-07 17:12:00,35.6,28.0,30.17,NNE,22,13.8,16.3,71,0.00,,,0.01,Rainwise IP-100,2013-03-07 22:12:00,
2013-03-07 17:17:00,35.6,26.0,30.16,NNE,22,6.1,19.8,69,0.00,,,0.01,Rainwise IP-100,2013-03-07 22:17:00,
2013-03-07 17:22:00,35.6,28.0,30.16,North,360,4.4,20.1,70,0.00,,,0.01,Rainwise IP-100,2013-03-07 22:22:00,
2013-03-07 17:27:00,35.4,26.0,30.17,NNW,337,5.4,18.0,71,0.00,,,0.01,Rainwise IP-100,2013-03-07 22:27:00,
2013-03-07 17:32:00,35.3,26.0,30.17,ENE,67,6.5,18.2,72,0.00,,,0.01,Rainwise IP-100,2013-03-07 22:32:00,
2013-03-07 17:37:00,35.2,26.0,30.17,NE,45,10.3,17.3,71,0.00,,,0.01,Rainwise IP-100,2013-03-07 22:37:00,
2013-03-07 17:42:00,35.1,26.0,30.17,NNW,337,5.8,18.0,71,0.00,,,0.01,Rainwise IP-100,2013-03-07 22:42:00,
2013-03-07 17:47:00,35.0,26.0,30.17,NNW,337,7.5,18.2,71,0.00,,,0.01,Rainwise IP-100,2013-03-07 22:47:00,
2013-03-07 17:52:00,34.9,26.0,30.17,NE,45,4.7,20.5,72,0.00,,,0.01,Rainwise IP-100,2013-03-07 22:52:00,
2013-03-07 17:57:00,34.8,26.0,30.17,North,360,5.8,16.8,71,0.00,,,0.01,Rainwise IP-100,2013-03-07 22:57:00,
2013-03-07 18:02:00,34.7,26.0,30.18,NNW,337,10.7,14.0,72,0.00,,,0.01,Rainwise IP-100,2013-03-07 23:02:00,
2013-03-07 18:07:00,34.7,26.0,30.17,NNW,337,6.8,15.6,72,0.00,,,0.01,Rainwise IP-100,2013-03-07 23:07:00,
2013-03-07 18:12:00,34.7,26.0,30.17,NNE,22,13.3,16.3,71,0.00,,,0.01,Rainwise IP-100,2013-03-07 23:12:00,
2013-03-07 18:17:00,34.7,26.0,30.17,North,360,6.3,18.2,72,0.00,,,0.01,Rainwise IP-100,2013-03-07 23:17:00,
2013-03-07 18:22:00,34.7,26.0,30.17,North,360,9.1,16.6,72,0.00,,,0.01,Rainwise IP-100,2013-03-07 23:22:00,
2013-03-07 18:27:00,34.6,26.0,30.17,NNE,22,7.0,17.5,71,0.00,,,0.01,Rainwise IP-100,2013-03-07 23:27:00,
2013-03-07 18:32:00,34.5,26.0,30.17,NNW,337,10.5,23.8,71,0.00,,,0.01,Rainwise IP-100,2013-03-07 23:32:00,
2013-03-07 18:37:00,34.3,26.0,30.17,NNW,337,12.8,23.8,71,0.00,,,0.01,Rainwise IP-100,2013-03-07 23:37:00,
2013-03-07 18:42:00,34.2,26.0,30.17,ENE,67,4.0,19.1,72,0.00,,,0.01,Rainwise IP-100,2013-03-07 23:42:00,
2013-03-07 18:47:00,34.2,26.0,30.16,ENE,67,8.9,20.3,72,0.00,,,0.01,Rainwise IP-100,2013-03-07 23:47:00,
2013-03-07 18:52:00,34.2,26.0,30.17,NNE,22,10.3,18.0,72,0.00,,,0.01,Rainwise IP-100,2013-03-07 23:52:00,
2013-03-07 18:57:00,34.2,28.0,30.17,NNE,22,3.0,15.6,73,0.00,,,0.01,Rainwise IP-100,2013-03-07 23:57:00,
2013-03-07 19:02:00,34.1,28.0,30.15,NNE,22,9.1,23.6,73,0.00,,,0.01,Rainwise IP-100,2013-03-08 00:02:00,
2013-03-07 19:07:00,34.1,28.0,30.16,NNW,337,5.4,18.4,73,0.00,,,0.01,Rainwise IP-100,2013-03-08 00:07:00,
2013-03-07 19:12:00,34.0,28.0,30.16,NNW,337,8.2,15.4,73,0.00,,,0.01,Rainwise IP-100,2013-03-08 00:12:00,
2013-03-07 19:17:00,33.9,28.0,30.16,NNW,337,9.1,15.4,73,0.00,,,0.01,Rainwise IP-100,2013-03-08 00:17:00,
2013-03-07 19:22:00,33.9,28.0,30.15,NNW,337,4.9,20.5,73,0.00,,,0.01,Rainwise IP-100,2013-03-08 00:22:00,
2013-03-07 19:27:00,33.9,28.0,30.15,ENE,67,9.3,18.7,74,0.00,,,0.01,Rainwise IP-100,2013-03-08 00:27:00,
2013-03-07 19:32:00,33.8,28.0,30.15,NNE,22,2.8,16.6,74,0.00,,,0.01,Rainwise IP-100,2013-03-08 00:32:00,
2013-03-07 19:37:00,33.8,28.0,30.15,NNW,337,8.4,20.5,74,0.00,,,0.01,Rainwise IP-100,2013-03-08 00:37:00,
2013-03-07 19:42:00,33.8,28.0,30.15,NNW,337,2.6,28.2,74,0.00,,,0.01,Rainwise IP-100,2013-03-08 00:42:00,
2013-03-07 19:47:00,33.8,28.0,30.14,NNE,22,5.4,18.9,74,0.00,,,0.01,Rainwise IP-100,2013-03-08 00:47:00,
2013-03-07 19:52:00,33.7,28.0,30.15,NNE,22,10.5,19.1,75,0.00,,,0.01,Rainwise IP-100,2013-03-08 00:52:00,
2013-03-07 19:57:00,33.7,28.0,30.16,NNE,22,9.3,20.8,75,0.00,,,0.01,Rainwise IP-100,2013-03-08 00:57:00,
2013-03-07 20:02:00,33.7,28.0,30.15,NNE,22,11.2,21.9,75,0.00,,,0.01,Rainwise IP-100,2013-03-08 01:02:00,
2013-03-07 20:07:00,33.8,28.0,30.15,NNE,22,12.4,21.0,76,0.00,,,0.01,Rainwise IP-100,2013-03-08 01:07:00,
2013-03-07 20:12:00,33.7,28.0,30.15,NNE,22,10.3,19.8,77,0.00,,,0.01,Rainwise IP-100,2013-03-08 01:12:00,
2013-03-07 20:17:00,33.7,28.0,30.15,NNE,22,14.7,21.9,77,0.00,,,0.01,Rainwise IP-100,2013-03-08 01:17:00,
2013-03-07 20:22:00,33.6,28.0,30.15,NNE,22,7.7,21.0,77,0.00,,,0.01,Rainwise IP-100,2013-03-08 01:22:00,
2013-03-07 20:27:00,33.6,28.0,30.16,NNW,337,4.0,21.0,77,0.00,,,0.01,Rainwise IP-100,2013-03-08 01:27:00,
2013-03-07 20:32:00,33.6,28.0,30.15,North,360,9.6,14.2,77,0.00,,,0.01,Rainwise IP-100,2013-03-08 01:32:00,
2013-03-07 20:37:00,33.6,28.0,30.16,NNE,22,4.2,19.4,77,0.00,,,0.01,Rainwise IP-100,2013-03-08 01:37:00,
2013-03-07 20:42:00,33.6,28.0,30.14,NE,45,6.1,23.3,77,0.00,,,0.01,Rainwise IP-100,2013-03-08 01:42:00,
2013-03-07 20:47:00,33.5,28.0,30.15,NNE,22,12.1,20.1,77,0.00,,,0.01,Rainwise IP-100,2013-03-08 01:47:00,
2013-03-07 20:52:00,33.4,28.0,30.15,NNE,22,3.5,23.1,77,0.00,,,0.01,Rainwise IP-100,2013-03-08 01:52:00,
2013-03-07 20:57:00,33.4,28.0,30.15,NE,45,11.7,16.3,77,0.00,,,0.01,Rainwise IP-100,2013-03-08 01:57:00,
2013-03-07 21:02:00,33.4,28.0,30.15,ENE,67,13.3,20.3,78,0.00,,,0.01,Rainwise IP-100,2013-03-08 02:02:00,
2013-03-07 21:07:00,33.4,28.0,30.14,NNE,22,7.7,17.3,78,0.00,,,0.01,Rainwise IP-100,2013-03-08 02:07:00,
2013-03-07 21:12:00,33.4,28.0,30.15,NNE,22,10.3,20.1,78,0.00,,,0.01,Rainwise IP-100,2013-03-08 02:12:00,
2013-03-07 21:17:00,33.3,28.0,30.15,NNE,22,8.2,17.3,78,0.00,,,0.01,Rainwise IP-100,2013-03-08 02:17:00,
2013-03-07 21:22:00,33.2,28.0,30.13,NNE,22,6.8,21.5,78,0.00,,,0.01,Rainwise IP-100,2013-03-08 02:22:00,
2013-03-07 21:27:00,33.2,28.0,30.14,NNE,22,9.6,25.9,78,0.00,,,0.01,Rainwise IP-100,2013-03-08 02:27:00,
2013-03-07 21:32:00,33.2,28.0,30.14,NNW,337,2.8,23.1,78,0.00,,,0.01,Rainwise IP-100,2013-03-08 02:32:00,
2013-03-07 21:37:00,33.2,28.0,30.14,NNE,22,8.4,20.3,78,0.00,,,0.01,Rainwise IP-100,2013-03-08 02:37:00,
2013-03-07 21:42:00,33.1,28.0,30.14,NNE,22,9.8,19.1,79,0.00,,,0.01,Rainwise IP-100,2013-03-08 02:42:00,
2013-03-07 21:47:00,33.1,28.0,30.14,NW,315,5.8,19.8,79,0.00,,,0.01,Rainwise IP-100,2013-03-08 02:47:00,
2013-03-07 21:52:00,33.0,28.0,30.14,NNE,22,14.2,21.7,79,0.00,,,0.01,Rainwise IP-100,2013-03-08 02:52:00,
2013-03-07 21:57:00,33.0,28.0,30.15,NNE,22,9.8,21.7,79,0.00,,,0.01,Rainwise IP-100,2013-03-08 02:57:00,
2013-03-07 22:02:00,33.0,28.0,30.14,NE,45,11.2,20.8,79,0.00,,,0.01,Rainwise IP-100,2013-03-08 03:02:00,
2013-03-07 22:07:00,33.0,28.0,30.14,NNE,22,9.3,18.4,79,0.00,,,0.01,Rainwise IP-100,2013-03-08 03:07:00,
2013-03-07 22:12:00,32.9,28.0,30.14,North,360,9.3,23.3,79,0.00,,,0.01,Rainwise IP-100,2013-03-08 03:12:00,
2013-03-07 22:17:00,32.9,28.0,30.14,NE,45,7.5,23.3,79,0.00,,,0.01,Rainwise IP-100,2013-03-08 03:17:00,
2013-03-07 22:22:00,32.9,28.0,30.14,NNE,22,7.2,20.3,79,0.00,,,0.01,Rainwise IP-100,2013-03-08 03:22:00,
2013-03-07 22:27:00,32.9,28.0,30.13,ENE,67,13.3,19.1,79,0.00,,,0.01,Rainwise IP-100,2013-03-08 03:27:00,
2013-03-07 22:32:00,32.9,28.0,30.13,ENE,67,9.8,14.7,79,0.00,,,0.01,Rainwise IP-100,2013-03-08 03:32:00,
2013-03-07 22:37:00,32.9,28.0,30.13,ENE,67,7.9,22.2,79,0.00,,,0.01,Rainwise IP-100,2013-03-08 03:37:00,
2013-03-07 22:42:00,32.8,28.0,30.13,ENE,67,6.3,20.3,79,0.00,,,0.01,Rainwise IP-100,2013-03-08 03:42:00,
2013-03-07 22:47:00,32.8,28.0,30.12,NNE,22,6.1,21.5,79,0.00,,,0.01,Rainwise IP-100,2013-03-08 03:47:00,
2013-03-07 22:52:00,32.8,28.0,30.13,NNE,22,8.6,15.6,80,0.00,,,0.01,Rainwise IP-100,2013-03-08 03:52:00,
2013-03-07 22:57:00,32.7,28.0,30.12,NNE,22,8.2,20.8,80,0.00,,,0.01,Rainwise IP-100,2013-03-08 03:57:00,
2013-03-07 23:02:00,32.6,28.0,30.12,ENE,67,14.2,21.9,80,0.00,,,0.01,Rainwise IP-100,2013-03-08 04:02:00,
2013-03-07 23:07:00,32.6,28.0,30.12,NNE,22,13.1,27.7,80,0.00,,,0.01,Rainwise IP-100,2013-03-08 04:07:00,
2013-03-07 23:12:00,32.6,28.0,30.12,NE,45,5.4,19.4,80,0.00,,,0.01,Rainwise IP-100,2013-03-08 04:12:00,
2013-03-07 23:17:00,32.6,28.0,30.11,North,360,5.6,20.1,80,0.00,,,0.01,Rainwise IP-100,2013-03-08 04:17:00,
2013-03-07 23:22:00,32.6,28.0,30.11,NNW,337,11.4,21.2,80,0.00,,,0.01,Rainwise IP-100,2013-03-08 04:22:00,
2013-03-07 23:27:00,32.6,28.0,30.11,ENE,67,7.5,24.5,79,0.00,,,0.01,Rainwise IP-100,2013-03-08 04:27:00,
2013-03-07 23:32:00,32.5,28.0,30.11,NNE,22,13.5,23.8,79,0.00,,,0.01,Rainwise IP-100,2013-03-08 04:32:00,
2013-03-07 23:37:00,32.5,28.0,30.11,NNE,22,14.9,19.4,80,0.00,,,0.01,Rainwise IP-100,2013-03-08 04:37:00,
2013-03-07 23:42:00,32.4,26.0,30.10,NNE,22,6.1,20.3,80,0.00,,,0.01,Rainwise IP-100,2013-03-08 04:42:00,
2013-03-07 23:47:00,32.4,28.0,30.11,NE,45,5.8,18.4,81,0.00,,,0.01,Rainwise IP-100,2013-03-08 04:47:00,
2013-03-07 23:52:00,32.4,28.0,30.11,NE,45,8.2,16.8,81,0.00,,,0.01,Rainwise IP-100,2013-03-08 04:52:00,
2013-03-07 23:57:00,32.3,26.0,30.10,NE,45,8.6,25.2,80,0.00,,,0.01,Rainwise IP-100,2013-03-08 04:57:00,